Location: *
(50.6089°N, 2.2719°E)
Time: 22:23:10
(UTC+00:00)

STARLINK-54 - Pass Details

Date: 18 October 2019
Orbit: 548 x 551 km, 53.0° (Epoch: 20 November)

Event Time Altitude Azimuth Distance (km) Brightness Sun altitude
Rises 17:46:10 0° 252° (WSW) 2,712 9.0 -9.1°
Reaches altitude 10° 17:48:24 10° 253° (WSW) 1,821 7.8 -9.4°
Maximum altitude 17:52:32 83° 340° (NNW) 558 3.6 -10.1°
Enters shadow 17:56:04 14° 71° (ENE) 1,578 5.3 -10.6°
